Torna al catalogo

COSMOS 839 DEB

AttivoUNKNOWN
NORAD 10414·DEBRIS·🇷🇺 Russia

Lanciato Jul 8, 1976 da Plesetsk Cosmodrome

Loading…

Prossimi Passaggi (prossime 24 ore)

TLE

AggiornatoSource: Space-Track

Epoca: Sep 14, 2026, 09:57 UTC

1 10414U 76067H   26257.41479881 -.00000067  00000-0 -79487-4 0  9994
2 10414  65.8780  44.7919 0624699  26.5723   3.7058 12.18428074233177

Traccia COSMOS 839 DEB in tempo reale con AllMySat

Download on the App Store